Location: Domachevo
(51.7500°N, 23.6000°E)
Time: 21:51:00
(UTC+03:00)

GENESIS II - Visible Passes

Search period start: 20 July 2017 00:00
Search period end: 30 July 2017 00:00
Orbit: 499 x 536 km, 64.5° (Epoch: 19 July)

Date Brightness Start Highest point End Pass type
(mag) Time Alt. Az. Time Alt. Az. Time Alt. Az.
20 Jul 7.6 01:17:37 10° NW 01:19:53 14° N 01:22:09 10° NNE visible
20 Jul 7.6 02:56:39 10° NNW 02:59:07 16° NNE 03:01:34 10° NE visible
20 Jul 6.0 04:34:06 10° NNW 04:37:51 38° NE 04:41:34 10° ESE visible
20 Jul 6.5 23:22:16 10° W 23:25:52 30° NNW 23:29:26 10° NNE visible
21 Jul 7.7 01:02:30 10° NW 01:04:45 14° N 01:07:00 10° NNE visible
21 Jul 7.6 02:41:29 10° NNW 02:43:58 16° NNE 02:46:26 10° NE visible
21 Jul 5.9 04:18:56 10° NNW 04:22:42 39° NE 04:26:25 10° ESE visible
21 Jul 6.5 23:07:08 10° W 23:10:42 29° NNW 23:14:16 10° NNE visible
22 Jul 7.7 00:47:22 10° NW 00:49:36 14° N 00:51:50 10° NNE visible
22 Jul 7.6 02:26:19 10° NNW 02:28:50 16° NNE 02:31:19 10° NE visible
22 Jul 5.8 04:03:45 10° NNW 04:07:33 40° NE 04:11:16 10° ESE visible
22 Jul 6.6 22:52:00 10° W 22:55:32 29° NNW 22:59:05 10° NNE visible
23 Jul 7.7 00:32:14 10° NW 00:34:28 14° N 00:36:40 10° NNE visible
23 Jul 7.6 02:11:09 10° NNW 02:13:41 16° NNE 02:16:11 10° NE visible
23 Jul 5.7 03:48:35 10° NW 03:52:23 41° NE 03:56:07 10° ESE visible
23 Jul 6.7 22:36:52 10° W 22:40:23 28° NNW 22:43:55 10° NNE visible
24 Jul 7.6 00:17:07 10° NW 00:19:19 14° N 00:21:30 10° NNE visible
24 Jul 7.5 01:55:59 10° NNW 01:58:32 16° NNE 02:01:04 10° NE visible
24 Jul 5.6 03:33:24 10° NW 03:37:13 42° NE 03:40:58 10° ESE visible
24 Jul 6.7 22:21:43 10° W 22:25:13 28° NNW 22:28:44 10° NNE visible
25 Jul 7.5 00:01:59 10° NW 00:04:10 14° N 00:06:20 10° NNE visible
25 Jul 7.4 01:40:49 10° NNW 01:43:23 16° NNE 01:45:56 10° NE visible
25 Jul 5.5 03:18:14 10° NW 03:22:03 43° NE 03:25:49 10° ESE visible
25 Jul 5.0 04:56:10 10° WNW 04:59:41 31° WSW 05:03:09 10° S visible
25 Jul 6.8 22:06:35 10° W 22:10:04 27° NNW 22:13:33 10° NNE visible
25 Jul 7.5 23:46:51 10° NW 23:49:01 14° N 23:51:10 10° NNE visible
26 Jul 7.3 01:25:38 10° NNW 01:28:14 16° NNE 01:30:48 10° ENE visible
26 Jul 5.4 03:03:03 10° NW 03:06:54 44° NE 03:10:40 10° ESE visible
26 Jul 5.0 04:41:01 10° WNW 04:44:31 30° WSW 04:47:56 10° S visible
26 Jul 7.4 23:31:43 10° NW 23:33:52 14° N 23:36:00 10° NNE visible
27 Jul 7.3 01:10:28 10° NNW 01:13:05 17° NNE 01:15:40 10° ENE visible
27 Jul 5.4 02:47:52 10° NW 02:51:44 45° NE 02:55:30 10° ESE visible
27 Jul 5.0 04:25:52 10° WNW 04:29:19 29° WSW 04:32:43 10° S visible
27 Jul 7.4 23:16:35 10° NW 23:18:43 14° N 23:20:51 10° NNE visible
28 Jul 7.2 00:55:17 10° NNW 00:57:55 17° NNE 01:00:33 10° ENE visible
28 Jul 5.3 02:32:41 10° NW 02:36:33 46° NE 02:40:21 10° ESE visible
28 Jul 5.1 04:10:42 10° WNW 04:14:07 28° WSW 04:17:30 10° S visible
28 Jul 7.3 23:01:27 10° NW 23:03:34 14° N 23:05:41 10° NNE visible
29 Jul 7.1 00:40:06 10° NNW 00:42:46 17° NNE 00:45:25 10° ENE visible
29 Jul 5.2 02:17:30 10° NW 02:21:23 47° NE 02:25:11 10° ESE visible
29 Jul 5.2 03:55:33 10° WNW 03:58:57 27° WSW 04:00:52 18° SSW visible
29 Jul 7.3 22:46:18 10° NW 22:48:24 14° N 22:50:30 10° NNE visible
